STARLINK-11385, 62014

Orbit data source: Space-Track

STARLINK-11385, 62014 is a payload satellite owned by SpaceX/Seattle (US) in LEO that was launched on Mon, 18 Nov 2024 UTC via an FALCON 9 launch vehicle from the Air Force Western Test Range (AFWTR). Payload-class satellites include a variety of spacecraft equipped with specific instruments for various scientific and technological missions. These include communications satellites like Starlink; space stations such as the ISS; scientific satellites like the Hubble; Earth observation satellites from companies like Planet Labs, Umbra, and HawkEye 360; GPS; miniature CubeSats for education and research; and military/defense satellites.

Loading next visibility...
Identifier
62014, 2024-213G
Orbit
LEO
Country
Flag of USUS
Related business
Manufacturer
SpaceX/Seattle
Mission
Operational Commercial Communications
Bus & Motor
STARLINK V2MD, Unknown motor
Mass
960 kg wet, ~910 kg dry
Launch date (UTC)
2024-11-18 (11 months ago)
Launch vehicle
FALCON 9
Launch site
Air Force Western Test Range (AFWTR)
Object type
Payload
Rocket body
Debris
Shape & HBR
Box + 2 Pan, 18.1 m
Radar Cross Section
36.964 m², Large (>1 m²)

Expand to show TLE details & history
Last TLE update: 20 hours ago

TLE from 20 hours ago
0 STARLINK-11385
1 62014U 24213G   25293.49467919  .00153618  00000-0  12453-2 0  9996
2 62014  53.1578  12.5454 0001115  77.7829 282.3314 15.69791796 52890
Epoch: 2025-10-20T11:52Z
TLE epoch observation values (Epoch: 2025-10-20T11:52:20.282Z)
Latitude
0.00002°
Longitude
165.26473°
Altitude
360.247 km
Speed
7.694 km/s
True Right ascension
00h 50m 10s
True Declination
0° 00' 00"
Sunlit
Object was in full shadow at epoch
Visualization orbit readout
Latitude
Unknown
Longitude
Unknown
Altitude
Unknown
Speed
Unknown
Apparent Right ascension
Unknown
Apparent Declination
Unknown
Sunlit
N/A
Visualization observer readout
Local Sidereal Time
02:44:01
Azimuth
Unknown
Elevation
Unknown
Doppler factor
Unknown
Orbital elements
Apogee altitude
360.505 km
Perigee altitude
359.002 km
Semi-major axis
6,737.891 km
Eccentricity
0.00011
Inclination
53.1578°
RAAN
12.5454°
Arg. of periapsis
77.7829°
True anomaly
282.31892°
Mean anomaly
282.3314°
Eccentric anomaly
282.32516°
Mean motion
3.92426 °/min
Orbital period
91.74 mins
BSTAR
0.0012453
Loading maneuver chart data...
Computing Atmospheric mass density...
Loading historical data...
Loading historical data...
Loading historical data...
Loading historical data...
Loading historical data...
Loading historical data...
Loading historical data...

Documentation

Showing up to 5 results
|